Flag for Canada Weather past 2 weeks in Morden, Manitoba, Canada

Now
66 °F

Mild.


Feels Like: 66 °F
Forecast: 61 / 72 °F
Wind: 7 mph from Northeast

Location: Morden CDA CS

Current Time: Jul 5, 2015 at 1:31:10 AM

Latest Report: Jul 5, 2015 at 12:00 AM


Visibility: N/A

Pressure: 29.74 "Hg

Humidity: 90%

Dew point: 63 °F

Location of MordenLocation

Historic Weather in Morden — Graph

°F

Morden temperature yesterday

Maximum temperature yesterday: 86 °F (at 5:00 PM)
Minimum temperature yesterday: 60 °F (at 5:00 AM)
Average temperature yesterday: 73 °F

Past Weeks' High & Low Weather Summary

 TemperatureHumidityPressure
High86 °F (Jul 4, 5:00 PM)100% (Jul 1, 7:00 AM)30.11 "Hg (Jul 1, 7:00 AM)
Low55 °F (Jun 24, 6:00 AM)31% (Jun 23, 5:00 PM)29.65 "Hg (Jul 4, 5:00 PM)
Average68 °F71%29.90 "Hg
* Reported Midnight between Jun 19 and Jun 20 — Midnight between Jul 4 and Jul 5, Morden, Weather by CustomWeather, © 2015

Note: Actual official high and low records may vary slightly from our data, if they occured in-between our weather recording intervals... More about our weather records

Advertising

Morden weather history for previous 24 hours

 ConditionsComfort  
Time TempWeatherWind HumidityBarometerVisibility
12:00 AM
Sun, Jul 5
66 °FMild.7 mph90%29.74 "HgN/A
11:00 PM
Sat, Jul 4
67 °FMild.2 mph90%29.77 "HgN/A
10:00 PM67 °FMild.2 mph86%29.72 "HgN/A
9:00 PM68 °FMild.3 mph81%29.73 "HgN/A
8:00 PM72 °FMild.8 mph73%29.67 "HgN/A
7:00 PM82 °FWarm.7 mph59%29.66 "HgN/A
6:00 PM86 °FWarm.14 mph51%29.67 "HgN/A
5:00 PM86 °FWarm.13 mph47%29.65 "HgN/A
4:00 PM86 °FWarm.13 mph47%29.70 "HgN/A
3:00 PM86 °FWarm.13 mph50%29.71 "HgN/A
2:00 PM85 °FWarm.12 mph52%29.72 "HgN/A
1:00 PM84 °FWarm.10 mph56%29.74 "HgN/A
12:00 PM81 °FWarm.10 mph60%29.75 "HgN/A
11:00 AM80 °FWarm.10 mph63%29.77 "HgN/A
10:00 AM77 °FWarm.7 mph70%29.79 "HgN/A
9:00 AM74 °FMild.5 mph73%29.80 "HgN/A
8:00 AM68 °FMild.3 mph81%29.81 "HgN/A
7:00 AM61 °FCool.5 mph89%29.83 "HgN/A
6:00 AM61 °FCool.2 mph87%29.82 "HgN/A
5:00 AM60 °FCool.3 mph89%29.83 "HgN/A
4:00 AM62 °FCool.1 mph83%29.84 "HgN/A
3:00 AM62 °FMild.3 mph82%29.85 "HgN/A
2:00 AM63 °FMild.3 mph78%29.85 "HgN/A
1:00 AM63 °FMild.5 mph81%29.88 "HgN/A
Weather by CustomWeather, © 2015

See weather overviewHow to use our weather pages